Date,TemperatureHighF,TemperatureAvgF,TemperatureLowF,DewpointHighF,DewpointAvgF,DewpointLowF,HumidityHigh,HumidityAvg,HumidityLow,PressureMaxIn,PressureMinIn,WindSpeedMaxMPH,WindSpeedAvgMPH,GustSpeedMaxMPH,PrecipitationSumIn
2013-1-4,37,36,33,33,31,27,94,83,69,0.00,40.00,19,7,26,0.00
2013-1-5,37,35,33,34,33,32,98,92,80,0.00,40.00,9,3,21,0.00
2013-1-8,36,32,30,22,19,15,70,56,50,0.00,40.00,13,7,17,0.00
2013-1-9,37,33,27,36,24,11,99,70,41,0.00,40.00,20,10,26,0.00
2013-1-10,36,34,33,34,33,30,99,93,85,0.00,40.00,13,4,22,0.00
2013-1-11,41,35,33,35,32,27,99,90,60,0.00,40.00,19,4,32,0.00
2013-1-12,41,37,33,41,37,33,99,98,94,0.00,40.00,16,5,24,0.00
2013-1-13,42,40,38,41,40,38,99,98,96,0.00,40.00,22,14,30,0.00
2013-1-14,41,38,32,40,36,29,99,92,76,0.00,40.00,30,15,45,0.00
2013-1-15,37,33,29,36,32,28,98,92,78,0.00,40.00,16,7,20,0.00
2013-1-16,37,36,36,36,36,35,98,97,94,0.00,40.00,15,-43,18,0.00
2013-1-23,39,38,37,39,38,36,99,97,94,0.00,40.00,23,12,35,0.00
2013-1-24,38,36,34,38,35,33,98,96,90,0.00,40.00,11,4,16,0.00
2013-1-25,38,33,23,33,24,15,93,69,54,0.00,40.00,14,5,21,0.00
2013-1-26,29,22,18,16,6,3,72,49,32,0.00,40.00,10,2,12,0.00
2013-1-27,23,20,14,11,8,5,74,60,46,0.00,40.00,17,5,21,0.00
2013-1-28,32,22,13,32,19,4,99,88,64,0.00,40.00,21,10,34,0.00
2013-1-29,38,35,32,38,35,32,99,99,99,0.00,40.00,21,7,34,0.00
2013-1-30,39,38,36,39,38,36,99,98,96,0.00,40.00,18,9,27,0.00
2013-1-31,37,35,33,36,34,32,99,96,91,0.00,40.00,11,-22,17,0.00